METEOR 1-12

Satellite information

Favourite Embed

Satellite Type and Status

PAYLOADIN ORBIT

Key statistics

Satellite METEOR 1-12 at a glance.

Uptime

19524

Days in orbit

Revolutions

≈ 14.0

Per day

Orbit

LEO

Low Earth Orbit

Inclination

81.2

Latest

Satellite identification and parameters

Extended collection of information and parameters for METEOR 1-12.

Object identification

Identified? True

Debris? False

Object name: METEOR 1-12

International designator: 1972-049A

Object number (NORAD): 6079

Object ID (CCSDS): 6079

Country: COMMONWEALTH OF INDEPENDENT STATES (CIS)

Current information (Y/N): Y

RCS size: LARGE

Orbital parameters

Period: 102.597 minutes

Inclination: 81.2259 deg

SMA: 7259.681 km

Apoapsis: 888.762 km

Periapsis: 874.33 km

RAAN: 167.684 deg

Eccentricy: 0.000994

Argument of periapsis: 277.6875 deg

Mean anomaly: 82.3163 deg

Mean motion: 14.03545375 rev/day

Mean motion (dot): 0.00000263 rev/day2

B* drag term: 0.00015987565 1/REarth

Two-line elements (TLE)

Creation date: Dec. 12, 2025, 10:14 a.m.

Reference frame: TEME

Reference center: EARTH

Epoch: Dec. 12, 2025, 6:10 a.m. UTC

TLE line 0: 0 METEOR 1-12

TLE line 1: 1 06079U 72049A 25346.25703505 .00000263 00000-0 15988-3 0 9996

TLE line 2: 2 06079 81.2259 167.6840 0009940 277.6875 82.3163 14.03545375734887

Live tracking on map

Real-time ground track for satellite METEOR 1-12.

In-orbit conjunctions

A list of the most updated potential collisions computed for object METEOR 1-12.

Target Orbit TCA Probability of collision Miss distance Type
CZ-4 R/B SSO 2025-11-11 07:11:52 0.0001393496 102.0 (m) ROCKET BODY
SL-16 DEB LEO 2025-11-10 14:49:01 0.0001242513 480.0 (m) DEBRIS
FENGYUN 1C DEB SSO 2025-09-29 02:17:02 0.001455911 132.0 (m) DEBRIS
COSMOS 2251 DEB LEO 2025-08-22 07:20:26 0.0001285538 314.0 (m) DEBRIS
SCOUT B DEB HEO 2025-03-04 14:50:47 0.0001397304 306.0 (m) DEBRIS

Associated space launch

The Meteor-1 series was the first series of Soviet meteorological satellites.

METEOR 1-12 was lifted into orbit during the mission ‘Vostok 8A92M | Meteor-1 12 (26L)’, on board a Vostok 8A92M space rocket.

The launch took place on June 30, 1972, 6:52 p.m. from 41/1.

For more information about the launch, click the button.

Launch to space Vostok 8A92M | Meteor-1 12 (26L)
Vostok 8A92M | Meteor-1 12 (26L)

Agency: N/A

Status: Launch Successful

Launch date: June 30, 1972, 6:52 p.m. UTC

Rocket: Vostok 8A92M

Launch pad: 41/1

Location: Plesetsk Cosmodrome, Russian Federation

...

Latest news about this satellite

There are no fresh news available about this satellite. Check back as we update our databases every day.


Newsletter sign-up

Weekly statistics, charts and insights to help you stay on top of the space industry.